This demonstration page uses our WeatherBlox Daily Observations layout. Learn more.

Left ArrowRight Arrow

Hourly Observations for August 10, 2020

Temp ( °F °C ) Dew Point ( °F °C ) Humidity (%) Winds ( mph kmh ) Pressure ( in mb ) Visibility ( mi km ) Precip ( " mm )
12:56 am 00:56 Clear 74 23.3 71 21.7 91 91 Calm 29.82 1010 10 16 0.00 0.00
1:56 am 01:56 Clear 76 24.4 67 19.4 74 74 SW 9 15 29.82 1010 10 16 0.00 0.00
2:56 am 02:56 Clear 82 27.8 56 13.3 41 41 WSW 9 15 29.82 1010 10 16 0.00 0.00
3:56 am 03:56 Clear 79 26.1 56 13.3 45 45 W 7 11 29.82 1010 10 16 0.00 0.00
4:56 am 04:56 Clear 70 21.1 68 20 93 93 NW 7 11 29.84 1011 10 16 0.00 0.00
5:56 am 05:56 Partly Cloudy 69 20.6 68 20 96 96 NNW 8 13 29.86 1011 10 16 0.00 0.00
6:08 am 06:08 Mostly Cloudy 70 21 68 20 94 94 NNW 7 11 29.86 1011 10 16 0.00 0.00
6:24 am 06:24 Cloudy 70 21 68 20 94 94 N 8 13 29.86 1011 8 13 0.00 0.00
6:35 am 06:35 Cloudy with Mist and Fog 70 21 68 20 94 94 NNW 10 17 29.86 1011 2 2 0.00 0.00
6:39 am 06:39 Cloudy with Mist and Fog 68 20 66 19 94 94 N 10 17 29.87 1011 1 1 0.00 0.00
6:47 am 06:47 Cloudy with Fog 68 20 66 19 94 94 N 10 17 29.87 1011 1 1 0.00 0.00
6:56 am 06:56 Cloudy with Fog 68 20 68 20 100 100 N 9 15 29.87 1012 0 0 0.00 0.00
7:22 am 07:22 Cloudy with Fog 70 21 68 20 94 94 N 15 24 29.88 1012 1 1 0.00 0.00
7:49 am 07:49 Cloudy with Mist and Fog 70 21 70 21 100 100 N 18 30 29.94 1014 1 2 0.00 0.00
7:56 am 07:56 Cloudy with Mist and Fog 69 20.6 68 20 96 96 N 18 30 29.97 1015 2 2 0.00 0.00
8:07 am 08:07 Cloudy with Mist and Fog 68 20 66 19 94 94 N 28 44 29.95 1014 3 5 0.00 0.00
8:24 am 08:24 Cloudy 66 19 64 18 94 94 NNE 23 37 29.97 1015 10 16 0.00 0.00
8:56 am 08:56 Cloudy 67 19.4 63 17.2 87 87 NE 16 26 30.00 1016 10 16 0.00 0.00
9:41 am 09:41 Cloudy 72 22 63 17 73 73 NE 20 31 29.96 1015 10 16 0.00 0.00
9:56 am 09:56 Partly Cloudy 72 22.2 64 17.8 76 76 NE 18 30 29.99 1016 10 16 0.00 0.00
10:56 am 10:56 Sunny 76 24.4 60 15.6 58 58 NE 23 37 29.99 1016 10 16 0.00 0.00
11:56 am 11:56 Sunny 76 24.4 60 15.6 58 58 ENE 17 28 29.99 1016 10 16 0.00 0.00
12:56 pm 12:56 Sunny 78 25.6 61 16.1 56 56 ENE 13 20 29.98 1015 10 16 0.00 0.00
1:56 pm 13:56 Sunny 80 26.7 61 16.1 52 52 ESE 13 20 29.98 1015 10 16 0.00 0.00
2:56 pm 14:56 Sunny 82 27.8 62 16.7 51 51 ENE 14 22 29.97 1015 10 16 0.00 0.00
3:56 pm 15:56 Sunny 82 27.8 64 17.8 55 55 ENE 10 17 29.95 1014 10 16 0.00 0.00
4:56 pm 16:56 Sunny 82 27.8 64 17.8 55 55 E 12 19 29.94 1014 10 16 0.00 0.00
5:56 pm 17:56 Sunny 81 27.2 65 18.3 58 58 NE 12 19 29.94 1014 10 16 0.00 0.00
6:56 pm 18:56 Sunny 80 26.7 64 17.8 58 58 ENE 13 20 29.93 1013 10 16 0.00 0.00
7:56 pm 19:56 Sunny 77 25 66 18.9 69 69 ENE 7 11 29.94 1014 10 16 0.00 0.00
8:56 pm 20:56 Clear 71 21.7 64 17.8 79 79 ENE 7 11 29.93 1014 10 16 0.00 0.00
9:56 pm 21:56 Clear 68 20 64 17.8 87 87 ENE 5 7 29.97 1015 10 16 0.00 0.00
10:56 pm 22:56 Partly Cloudy 67 19.4 63 17.2 87 87 NE 6 9 29.97 1015 10 16 0.00 0.00
11:04 pm 23:04 Mostly Cloudy 66 19 63 17 88 88 NE 7 11 29.95 1014 10 16 0.00 0.00
11:56 pm 23:56 Partly Cloudy 66 18.9 63 17.2 90 90 NE 6 9 29.98 1015 10 16 0.00 0.00

Powered by AerisWeather